DELTA 1 DEB, 48086

Orbit data source: Space-Track

DELTA 1 DEB, 48086 is space debris in SSO originally from a launch on Tue, 06 Nov 1973 UTC launched from the Air Force Western Test Range (AFWTR). Debris objects in space refer to the collection of defunct objects orbiting the Earth. Examples of debris include non-operational satellites, rocket bodies, and fragments generated from explosions, collisions, or faulty payload assembly.

Loading next visibility...
Identifier
48086, 1973-086JG
Orbit
SSO
Country
Flag of USUS
Related business
Manufacturer
Unknown
Mission
Spacecraft
Bus & Motor
Unknown
Mass
Unknown
Launch date (UTC)
1973-11-06 (52 years ago)
Launch vehicle
Unknown
Launch site
Air Force Western Test Range (AFWTR)
Object type
Payload
Rocket body
Debris
Shape & HBR
Unknown shape, 0.1 m
Radar Cross Section
Small (<0.1 m²)

Expand to show TLE details & history
Last TLE update: 1 month ago

TLE from 1 month ago
0 DELTA 1 DEB
1 48086U 73086JG  25257.23539470  .00000318  00000-0  10549-2 0  9997
2 48086 101.4366 352.4453 0262105 328.7150  29.8578 12.99234225542321
Epoch: 2025-09-14T05:38Z
TLE epoch observation values (Epoch: 2025-09-14T05:38:58.102Z)
Latitude
-0°
Longitude
-85.7541°
Altitude
1,095.325 km
Speed
7.387 km/s
True Right ascension
23h 29m 46s
True Declination
0° 00' 00"
Sunlit
Object was in full shadow at epoch
Visualization orbit readout
Latitude
Unknown
Longitude
Unknown
Altitude
Unknown
Speed
Unknown
Apparent Right ascension
Unknown
Apparent Declination
Unknown
Sunlit
N/A
Visualization observer readout
Local Sidereal Time
08:23:12
Azimuth
Unknown
Elevation
Unknown
Doppler factor
Unknown
Orbital elements
Apogee altitude
1,462.82 km
Perigee altitude
1,062.287 km
Semi-major axis
7,640.69 km
Eccentricity
0.02621
Inclination
101.4366°
RAAN
352.4453°
Arg. of periapsis
328.715°
True anomaly
31.39658°
Mean anomaly
29.8578°
Eccentric anomaly
30.62277°
Mean motion
3.24971 °/min
Orbital period
110.78 mins
BSTAR
0.0010549
Loading maneuver chart data...
Computing Atmospheric mass density...
Loading historical data...
Loading historical data...
Loading historical data...
Loading historical data...
Loading historical data...
Loading historical data...
Loading historical data...

Documentation

Showing up to 5 results
|